Boothville, LA

6:46 PM CDT on September 22, 2017 (GMT -0500)
Boothville

Weather History for KBVE - January, 2013

Change the Weather History Date:

Wednesday, January 30, 2013

  Actual Average (KAXO) Record (KAXO)
Temperature  
Mean Temperature 62 °F -  
Max Temperature 73 °F 58 °F 71 °F (2002)
Min Temperature 48 °F 54 °F 35 °F (2014)
Degree Days  
Heating Degree Days 4    
Growing Degree Days 12 (Base 50)    
Moisture  
Dew Point 56 °F    
Average Humidity 86    
Maximum Humidity 100    
Minimum Humidity 48    
Precipitation  
Precipitation 0.45 in - - ()
Sea Level Pressure  
Sea Level Pressure 29.86 in    
Wind  
Wind Speed 19 mph (West)    
Max Wind Speed 24 mph    
Max Gust Speed 33 mph    
Visibility 6 miles    
Events Rain    
Averages and records for this station are not official NWS values.
T = Trace of Precipitation, MM = Missing Value Source: NWS Daily Summary

Daily Weather History Graph

Daily Weather History Graph

Search for Another Location

Airport or City:

Trip Planner

Search our weather history database for the weather conditions in past years. The results will help you decide how hot, cold, wet, or windy it might be!

Date:

Astronomy

Jan. 30, 2013 Rise Set
Actual Time 6:47 AM CST 5:34 PM CST
Civil Twilight 6:22 AM CST 5:59 PM CST
Nautical Twilight 5:54 AM CST 6:27 PM CST
Astronomical Twilight 5:26 AM CST 6:56 PM CST
Moon 9:09 PM CST (1/30) 8:36 AM CST (1/30)
Length of Visible Light 11h 36m
Length of Day
10h 46m
Waning Gibbous, 87% of the Moon is Illuminated
Jan 30
Waning Gibbous
Feb 3
Last Quarter
Feb 10
New
Feb 17
First Quarter
Feb 25
Full

Hourly Weather History & Observations

Time (CST) Temp. Dew Point Humidity Pressure Visibility Wind Dir Wind Speed Gust Speed Precip Events Conditions
12:26 AM 69.8 °F 69.8 °F 100% 29.86 in 6.0 mi South 16.1 mph - N/A   Scattered Clouds
12:46 AM 69.8 °F 69.8 °F 100% 29.84 in 6.0 mi South 20.7 mph 25.3 mph N/A   Mostly Cloudy
12:51 AM 70.0 °F 69.1 °F 97% 29.84 in 6.0 mi South 18.4 mph - N/A   Mostly Cloudy
1:51 AM 70.0 °F 69.1 °F 97% 29.82 in 6.0 mi South 20.7 mph - N/A   Mostly Cloudy
2:08 AM 69.8 °F 69.8 °F 100% 29.81 in 6.0 mi South 18.4 mph 28.8 mph N/A   Mostly Cloudy
2:51 AM 70.0 °F 69.1 °F 97% 29.79 in 6.0 mi South 20.7 mph 26.5 mph N/A   Overcast
3:51 AM 70.0 °F 69.1 °F 97% 29.76 in 5.0 mi South 20.7 mph - N/A   Overcast
4:51 AM 70.0 °F 69.1 °F 97% 29.75 in 5.0 mi South 19.6 mph 27.6 mph N/A   Overcast
5:19 AM 69.8 °F 69.8 °F 100% 29.75 in 5.0 mi South 19.6 mph 31.1 mph N/A   Overcast
5:51 AM 70.0 °F 69.1 °F 97% 29.74 in 5.0 mi South 20.7 mph 29.9 mph N/A   Overcast
6:51 AM 70.0 °F 69.1 °F 97% 29.74 in 5.0 mi South 21.9 mph 32.2 mph N/A   Overcast
7:51 AM 71.1 °F 69.1 °F 93% 29.75 in 4.0 mi South 23.0 mph 29.9 mph N/A   Overcast
8:51 AM 72.0 °F 69.1 °F 91% 29.76 in 5.0 mi South 21.9 mph 29.9 mph N/A   Overcast
9:51 AM 73.0 °F 69.1 °F 87% 29.76 in 6.0 mi South 23.0 mph 33.4 mph N/A   Overcast
10:42 AM 64.4 °F 60.8 °F 88% 29.80 in 7.0 mi WNW 21.9 mph 31.1 mph 0.00 in Rain Light Rain
10:45 AM 62.6 °F 60.8 °F 94% 29.81 in 4.0 mi NW 21.9 mph 31.1 mph 0.00 in Rain Light Rain
10:47 AM 62.6 °F 60.8 °F 94% 29.81 in 1.5 mi NW 16.1 mph 31.1 mph 0.00 in Rain Rain
10:51 AM 61.0 °F 59.0 °F 93% 29.82 in 1.0 mi NW 24.2 mph 31.1 mph 0.10 in Rain Heavy Rain
10:53 AM 60.8 °F 59.0 °F 94% 29.81 in 0.8 mi NW 23.0 mph 29.9 mph 0.00 in Rain Rain
10:57 AM 57.2 °F 57.2 °F 100% 29.82 in 1.0 mi NW 21.9 mph 31.1 mph 0.02 in Rain Rain
11:04 AM 57.2 °F 57.2 °F 100% 29.82 in 2.0 mi WNW 19.6 mph 29.9 mph 0.03 in Rain Rain
11:15 AM 57.2 °F 57.2 °F 100% 29.83 in 1.5 mi WNW 19.6 mph 25.3 mph 0.07 in Rain Heavy Rain
11:39 AM 53.6 °F 53.6 °F 100% 29.84 in 3.0 mi WNW 16.1 mph 26.5 mph 0.15 in Rain Light Rain
11:51 AM 54.0 °F 52.0 °F 93% 29.85 in 2.0 mi WNW 17.3 mph 23.0 mph 0.18 in Rain Light Rain
11:59 AM 53.6 °F 51.8 °F 94% 29.85 in 1.5 mi WNW 15.0 mph 24.2 mph 0.05 in Rain Rain
12:05 PM 53.6 °F 51.8 °F 94% 29.85 in 3.0 mi WNW 15.0 mph 24.2 mph 0.06 in Rain Rain
12:12 PM 53.6 °F 51.8 °F 94% 29.85 in 2.0 mi WNW 13.8 mph - 0.09 in Rain Rain
12:30 PM 53.6 °F 51.8 °F 94% 29.85 in 4.0 mi NW 10.4 mph - 0.14 in Rain Light Rain
12:51 PM 55.0 °F 53.1 °F 93% 29.86 in 9.0 mi WNW 10.4 mph - 0.14 in Rain Light Rain
1:15 PM 55.4 °F 55.4 °F 100% 29.87 in 2.0 mi West 6.9 mph - 0.02 in Rain Light Rain
1:24 PM 57.2 °F 53.6 °F 88% 29.86 in 8.0 mi WNW 11.5 mph - 0.03 in Rain Light Rain
1:51 PM 57.0 °F 52.0 °F 83% 29.86 in 10.0 mi West 13.8 mph - 0.03 in   Overcast
2:51 PM 59.0 °F 45.0 °F 60% 29.86 in 10.0 mi WNW 15.0 mph 24.2 mph 0.00 in   Overcast
3:51 PM 59.0 °F 45.0 °F 60% 29.88 in 10.0 mi West 18.4 mph 28.8 mph 0.00 in   Overcast
4:51 PM 59.0 °F 44.1 °F 58% 29.90 in 10.0 mi West 15.0 mph 24.2 mph N/A   Overcast
5:51 PM 57.9 °F 39.9 °F 51% 29.95 in 10.0 mi WNW 15.0 mph - N/A   Mostly Cloudy
6:51 PM 55.0 °F 39.0 °F 55% 29.98 in 10.0 mi WNW 16.1 mph 21.9 mph N/A   Clear
7:51 PM 55.0 °F 39.9 °F 57% 30.03 in 10.0 mi WNW 15.0 mph - N/A   Clear
8:51 PM 53.1 °F 34.0 °F 48% 30.08 in 10.0 mi NW 23.0 mph 33.4 mph N/A   Clear
9:51 PM 52.0 °F 35.1 °F 53% 30.12 in 10.0 mi NNW 23.0 mph 33.4 mph N/A   Clear
10:51 PM 50.0 °F 34.0 °F 54% 30.15 in 10.0 mi NW 19.6 mph 31.1 mph N/A   Clear
11:51 PM 48.9 °F 30.9 °F 50% 30.17 in 10.0 mi NNW 21.9 mph 33.4 mph N/A   Clear